Weather History for Jersey, United Kingdom

Change the Weather History Date:

Wednesday, October 9, 2013

  Actual Average Record
Temperature  
Mean Temperature 58 °F -  
Max Temperature 62 °F 56 °F 73 °F (2010)
Min Temperature 55 °F 49 °F 48 °F (2005)
Degree Days  
Heating Degree Days 6    
Growing Degree Days 8 (Base 50)    
Moisture  
Dew Point 54 °F    
Average Humidity 85    
Maximum Humidity 100    
Minimum Humidity 68    
Precipitation  
Precipitation 0.00 in - - ()
Sea Level Pressure  
Sea Level Pressure 30.20 in    
Wind  
Wind Speed 11 mph ()    
Max Wind Speed 20 mph    
Max Gust Speed 28 mph    
Visibility 5.8 miles    
Events Rain    
Averages and records for this station are not official NWS values.
T = Trace of Precipitation, MM = Missing Value Source: Averaged Metar Reports

Daily Weather History Graph

Daily Weather History Graph

Search for Another Location

Airport:

Trip Planner

Search our weather history database for the weather conditions in past years. The results will help you decide how hot, cold, wet, or windy it might be!

Date:

Astronomy

Oct. 09, 2013 Rise Set
Actual Time 7:20 AM BST 6:30 PM BST
Civil Twilight 6:48 AM BST 7:02 PM BST
Nautical Twilight 6:11 AM BST 7:39 PM BST
Astronomical Twilight 5:34 AM BST 8:16 PM BST
Moon 12:22 PM BST (10/9) 9:29 PM BST (10/9)
Length of Visible Light 12h 13m
Length of Day
11h 10m
Waxing Crescent, 23% of the Moon is Illuminated
Oct 9
Waxing Crescent
Oct 12
First Quarter
Oct 19
Full
Oct 27
Last Quarter
Nov 3
New

Hourly Weather History & Observations

Time (BST) Temp. Dew Point Humidity Pressure Visibility Wind Dir Wind Speed Gust Speed Precip Events Conditions
1:00 AM 60 °F 59 °F 95% 30.32 in 2 mi West 10.4 mph - - Rain Light Rain
3:50 AM 60.8 °F 59.0 °F 94% 30.27 in 2.5 mi West 13.8 mph - N/A   Mostly Cloudy
4:20 AM 60.8 °F 59.0 °F 94% 30.27 in 2.5 mi WNW 11.5 mph - N/A   Mostly Cloudy
4:50 AM 60.8 °F 59.0 °F 94% 30.27 in 2.5 mi WNW 10.4 mph - N/A   Mostly Cloudy
5:20 AM 59.0 °F 59.0 °F 100% 30.27 in 3.7 mi West 13.8 mph - N/A   Mostly Cloudy
5:50 AM 60.8 °F 59.0 °F 94% 30.27 in 6.2 mi West 12.7 mph - N/A   Mostly Cloudy
6:20 AM 60.8 °F 59.0 °F 94% 30.27 in 6.2 mi West 11.5 mph - N/A   Mostly Cloudy
6:50 AM 60.8 °F 59.0 °F 94% 30.24 in 6.2 mi WNW 10.4 mph - N/A   Mostly Cloudy
7:00 AM 60 °F 58 °F 93% 30.26 in 9 mi WNW 12.7 mph - - Rain Light Rain
7:20 AM 60.8 °F 59.0 °F 94% 30.24 in 5.0 mi West 12.7 mph - N/A   Light Drizzle
7:50 AM 59.0 °F 59.0 °F 100% 30.24 in 1.2 mi WNW 9.2 mph - N/A Rain Rain
8:20 AM 59.0 °F 57.2 °F 94% 30.24 in 1.9 mi WNW 8.1 mph - N/A Rain Light Rain
8:50 AM 57.2 °F 55.4 °F 94% 30.24 in 1.9 mi North 8.1 mph - N/A   Light Drizzle
9:20 AM 57.2 °F 57.2 °F 100% 30.24 in 6.2 mi NNE 4.6 mph - N/A   Mostly Cloudy
9:50 AM 59.0 °F 57.2 °F 94% 30.24 in 6.2 mi NNE 4.6 mph - N/A   Mostly Cloudy
10:00 AM 58 °F 57 °F 95% 30.24 in 19 mi North 3.5 mph - - Rain Light Drizzle
10:20 AM 60.8 °F 57.2 °F 88% 30.21 in 6.2 mi NW 4.6 mph - N/A   Scattered Clouds
10:50 AM 59.0 °F 57.2 °F 94% 30.24 in 6.2 mi NW 9.2 mph - N/A   Mostly Cloudy
11:20 AM 59.0 °F 57.2 °F 94% 30.24 in 6.2 mi WNW 10.4 mph - N/A   Mostly Cloudy
11:50 AM 59.0 °F 55.4 °F 88% 30.21 in 6.2 mi WNW 13.8 mph - N/A   Mostly Cloudy
12:20 PM 60.8 °F 57.2 °F 88% 30.21 in 6.2 mi WNW 15.0 mph - N/A   Scattered Clouds
12:50 PM 60.8 °F 55.4 °F 82% 30.21 in 6.2 mi WNW 16.1 mph - N/A   Mostly Cloudy
1:00 PM 61 °F 56 °F 80% 30.21 in 22 mi WNW 15.0 mph - -   Partly Cloudy
1:20 PM 60.8 °F 55.4 °F 82% 30.18 in 6.2 mi NW 13.8 mph - N/A   Scattered Clouds
1:50 PM 59.0 °F 55.4 °F 88% 30.18 in 6.2 mi WNW 17.3 mph - N/A   Scattered Clouds
2:20 PM 60.8 °F 53.6 °F 77% 30.18 in 6.2 mi WNW 18.4 mph - N/A   Mostly Cloudy
2:50 PM 59.0 °F 51.8 °F 77% 30.15 in 6.2 mi WNW 13.8 mph - N/A   Mostly Cloudy
3:20 PM 59.0 °F 51.8 °F 77% 30.15 in 6.2 mi WNW 17.3 mph - N/A   Scattered Clouds
3:50 PM 57.2 °F 50.0 °F 77% 30.15 in 6.2 mi NW 16.1 mph - N/A   Mostly Cloudy
4:00 PM 58 °F 51 °F 70% 30.16 in 34 mi NW 17.3 mph - -   Mostly Cloudy
4:20 PM 57.2 °F 50.0 °F 77% 30.12 in 6.2 mi WNW 19.6 mph - N/A   Mostly Cloudy
4:50 PM 57.2 °F 50.0 °F 77% 30.12 in 6.2 mi WNW 13.8 mph 27.6 mph N/A   Mostly Cloudy
5:20 PM 57.2 °F 51.8 °F 82% 30.12 in 6.2 mi NW 17.3 mph - N/A   Mostly Cloudy
5:50 PM 57.2 °F 50.0 °F 77% 30.12 in 6.2 mi NW 17.3 mph - N/A   Mostly Cloudy
6:20 PM 57.2 °F 48.2 °F 72% 30.12 in 6.2 mi NW 19.6 mph - N/A   Scattered Clouds
6:50 PM 55.4 °F 48.2 °F 77% 30.12 in 6.2 mi NW 17.3 mph - N/A   Scattered Clouds
7:00 PM 56 °F 48 °F 68% 30.12 in 31 mi NW 18.4 mph - -   Partly Cloudy
7:20 PM 57.2 °F 48.2 °F 72% 30.12 in 6.2 mi NNW 15.0 mph - N/A   Mostly Cloudy
7:50 PM 55.4 °F 46.4 °F 72% 30.12 in 6.2 mi NNW 16.1 mph - N/A   Scattered Clouds
8:20 PM 55.4 °F 46.4 °F 72% 30.12 in 6.2 mi NW 12.7 mph - N/A   Scattered Clouds
8:50 PM 55.4 °F 46.4 °F 72% 30.12 in 6.2 mi NW 13.8 mph - N/A   Partly Cloudy
10:00 PM 56 °F 49 °F 70% 30.12 in 28 mi NW 15.0 mph - -   Partly Cloudy